Lapse_Rate
5.6 5.6 5.6 5.7 5.7 5.9 5.9 5.7 5.5 5.4 5.4 5.3 5.3 5.2 5.2 5.3 5.3 5.2 5.0 4.9 4.7 4.7
5.4 5.3 5.3 5.4 5.5 5.6 5.7 5.6 5.4 5.2 5.2 5.2 5.2 5.2 5.1 4.9 4.9 5.0 5.0 4.9 4.9 4.8
5.4 5.5 5.4 5.3 5.2 5.3 5.4 5.4 5.3 5.3 5.2 5.2 5.2 5.2 5.1 5.0 5.0 4.8 4.7 4.7 4.7 4.7
5.1 5.2 5.0 4.8 4.9 5.0 5.1 5.2 5.2 5.1 5.0 5.0 5.0 5.2 5.2 5.2 5.2 5.3 5.1 4.9 4.8 4.6
5.1 5.0 4.9 4.7 4.7 4.8 4.9 5.0 5.0 5.1 5.2 5.2 5.1 5.1 5.1 5.1 5.1 5.0 4.9 4.8 5.0 4.8
5.1 4.9 4.7 4.6 4.8 4.8 4.9 5.0 5.1 5.3 5.3 5.2 5.3 5.3 5.2 5.2 5.0 5.0 5.0 4.8 4.7 4.5
5.1 4.8 4.6 4.6 4.8 4.7 4.6 4.8 4.9 5.0 5.3 5.4 5.4 5.4 5.3 5.3 5.3 5.3 5.1 5.0 4.8 4.5
5.1 4.9 4.8 4.8 4.8 4.7 4.8 4.9 4.9 5.0 5.1 5.1 5.1 5.0 5.1 5.1 5.1 4.9 4.9 4.9 4.9 4.8
5.4 5.3 5.2 5.1 5.0 5.2 5.3 5.2 5.0 5.1 5.1 5.2 5.1 5.0 5.0 5.1 5.2 5.0 4.9 4.9 4.8 4.7
6.1 5.9 5.7 5.7 5.9 5.8 5.8 5.7 5.7 5.7 5.6 5.5 5.5 5.5 5.3 5.3 5.2 5.1 5.0 5.0 5.0 5.0
6.1 6.0 6.0 6.0 5.9 5.8 5.5 5.6 5.8 5.9 5.8 5.5 5.4 5.3 5.3 5.2 5.0 5.0 4.9 4.9 5.0 4.9
6.1 6.0 5.8 5.7 5.7 5.7 5.7 5.6 5.5 5.4 5.2 5.2 5.2 5.2 5.2 5.2 5.1 5.0 4.8 4.6 4.6 4.8
5.5 5.2 5.3 5.4 5.8 6.0 5.8 5.7 5.9 6.0 5.8 5.6 5.7 5.7 5.6 5.6 5.4 5.1 5.0 5.0 4.9 5.0
5.5 5.4 5.2 5.4 5.8 5.8 5.9 6.0 6.1 5.9 6.0 5.8 5.9 6.1 6.1 6.0 5.9 5.8 5.8 5.7 5.7 5.5
Wind_Speed
5 4 3 3 3 3 2 3 3 4 4 4 4 3 3 2 3 3 3 4 4 3
6 6 5 6 4 2 3 3 4 3 4 4 4 4 3 2 3 2 3 4 3 2
6 6 6 4 5 5 4 3 4 4 4 4 4 3 3 2 3 3 3 3 4 3
6 7 6 5 5 5 4 4 4 4 4 4 4 3 3 4 4 4 4 3 4 5
6 6 6 6 6 5 6 4 5 4 5 5 5 4 4 5 4 4 5 5 4 5
7 6 7 7 6 6 6 6 5 5 6 6 6 5 5 5 5 5 5 5 5 5
7 7 6 6 6 6 6 6 6 6 6 6 6 6 5 5 5 5 5 5 5 5
6 5 6 7 6 6 6 6 6 6 6 6 5 5 6 6 6 6 6 6 6 6
3 4 6 5 5 6 6 6 6 6 6 6 5 10 12 9 6 6 6 6 6 6
4 4 5 5 5 6 6 5 6 6 6 7 7 12 13 13 6 6 6 6 6 5
8 7 7 6 5 5 3 4 5 6 6 6 7 13 15 14 6 6 7 7 7 7
6 6 6 6 6 4 4 3 4 4 6 6 9 13 13 12 5 6 8 7 7 7
5 4 5 5 5 3 3 5 5 5 5 9 7 12 13 8 3 6 6 6 7 13
5 5 6 5 3 3 3 2 4 6 7 6 6 7 18 14 6 6 6 5 5 4
Wind_Direction
210 207 213 221 217 233 245 263 286 299 290 268 266 254 238 237 237 211 220 227 212 210
210 204 215 220 218 243 256 256 257 260 264 269 272 264 253 250 255 234 235 242 255 254
214 217 221 213 234 242 257 258 273 284 281 285 277 267 247 255 261 256 267 251 238 235
218 218 220 222 231 233 232 236 254 266 277 276 273 268 261 263 267 257 264 259 247 259
219 214 219 227 235 235 243 241 249 262 265 265 259 255 248 260 270 255 263 268 264 265
229 221 226 227 230 229 232 233 232 230 248 260 258 249 238 233 252 253 254 263 255 260
226 225 222 228 232 235 232 238 242 239 242 248 257 252 246 237 237 239 239 238 236 247
237 226 227 236 236 245 239 235 236 243 245 244 239 239 236 233 233 234 243 243 242 237
289 259 270 280 267 263 256 244 240 240 239 248 242 245 249 235 220 226 226 238 247 248
320 292 276 266 260 259 259 261 260 259 248 254 251 254 255 252 227 226 231 227 225 241
7 356 348 342 319 305 281 270 266 266 260 263 269 264 256 253 238 234 235 227 221 217
14 9 3 1 345 328 307 299 274 261 275 255 264 266 260 267 260 255 253 239 231 223
350 6 1 1 345 309 325 320 320 314 290 283 277 284 286 281 241 257 261 266 251 248
333 327 308 301 291 275 272 290 317 318 307 289 266 297 304 285 265 244 253 250 260 241